Starlink 33883

operational
NORAD ID: 63781 Int'l Des: 2025-091 Owner: SPXS Country: US Constellation: starlink
LEOCIRCULAR

Über Starlink 33883

Beschreibung wird geladen...

Live-Position

3D-Globus wird geladen...

Nächste Überflüge

Höhenverlauf

Altitude vs Time

uPlot chart will show altitude changes over time

Zweizeiliger Elementsatz

1 63781U 25091G 26034.97521053 .00013428 00000-0 49648-3 0 9991
2 63781 42.9995 243.1377 0001905 273.1514 86.9120 15.27588201 43743
Epoch: 3. Feb. 2026 • Age: 20 hours

Aktueller Status

Höhe 489.9 km
Geschwindigkeit 7.62 km/s
Subsatellitenpunkt -30.12°S, 131.18°E
Startdatum 2. Mai 2025
Alter 0.7 years
Typ internet

Technische Details

Klassifizierung Payload
Masse 575.00 kg
Trockenmasse 530.00 kg
Gesamtmasse 575.00 kg
Länge 0.30 m
Durchmesser 4.10 m
Spannweite 29.00 m
Form Box + pan
Hersteller SPXS
Bus-Typ Starlink V2MO
Phasenstatus In Orbit
Besitzer/Staat SPXS/US

Große Konstellationen

Loading constellations...